| time (UTC) | temp C | wind direction | speed KPH | gust KPH | rain 1hr cm | rain 24hr cm | rain mn cm | humidity % | barometer mb |
| 20260906212459 | 32 | 105 | 1.6 | 8.0 | 0.00 | 0.00 | 0.00 | 36 | 1014.2 |
| 20260906211959 | 32 | 174 | 1.6 | 8.0 | 0.00 | 0.00 | 0.00 | 37 | 1014.3 |
| 20260906211500 | 31 | 105 | 3.2 | 8.0 | 0.00 | 0.00 | 0.00 | 41 | 1014.4 |
| 20260906210958 | 31 | 117 | 1.6 | 4.8 | 0.00 | 0.00 | 0.00 | 38 | 1014.4 |
| 20260906210457 | 31 | 134 | 3.2 | 11.3 | 0.00 | 0.00 | 0.00 | 37 | 1014.4 |
| 20260906205958 | 31 | 78 | 4.8 | 11.3 | 0.00 | 0.00 | 0.00 | 36 | 1014.4 |
| 20260906205455 | 31 | 113 | 3.2 | 9.7 | 0.00 | 0.00 | 0.00 | 39 | 1014.4 |
| 20260906204947 | 31 | 113 | 1.6 | 4.8 | 0.00 | 0.00 | 0.00 | 40 | 1014.7 |
| 20260906204442 | 31 | 123 | 3.2 | 8.0 | 0.00 | 0.00 | 0.00 | 40 | 1014.7 |
| 20260906203942 | 31 | 119 | 1.6 | 8.0 | 0.00 | 0.00 | 0.00 | 39 | 1014.8 |
| 20260906203444 | 31 | 86 | 1.6 | 6.4 | 0.00 | 0.00 | 0.00 | 42 | 1014.9 |
| 20260906203248 | 30 | 126 | 3.2 | 9.7 | 0.00 | 0.00 | 0.00 | 43 | 1014.9 |
| 20260906202744 | 31 | 322 | 3.2 | 12.9 | 0.00 | 0.00 | 0.00 | 42 | 1014.9 |
| 20260906201941 | 31 | 116 | 3.2 | 12.9 | 0.00 | 0.00 | 0.00 | 43 | 1014.9 |
| 20260906201743 | 31 | 98 | 3.2 | 11.3 | 0.00 | 0.00 | 0.00 | 45 | 1015.0 |
| 20260906200935 | 31 | 108 | 3.2 | 14.5 | 0.00 | 0.00 | 0.00 | 45 | 1015.0 |
| 20260906200438 | 31 | 113 | 3.2 | 14.5 | 0.00 | 0.00 | 0.00 | 43 | 1015.1 |
| 20260906200239 | 31 | 129 | 3.2 | 9.7 | 0.00 | 0.00 | 0.00 | 45 | 1015.1 |
| 20260906195435 | 31 | 117 | 3.2 | 9.7 | 0.00 | 0.00 | 0.00 | 42 | 1015.2 |
| 20260906194934 | 30 | 144 | 3.2 | 8.0 | 0.00 | 0.00 | 0.00 | 45 | 1015.2 |
| 20260906194433 | 30 | 85 | 3.2 | 8.0 | 0.00 | 0.00 | 0.00 | 45 | 1015.3 |
| 20260906193933 | 31 | 124 | 3.2 | 9.7 | 0.00 | 0.00 | 0.00 | 41 | 1015.5 |
| 20260906193434 | 30 | 288 | 1.6 | 9.7 | 0.00 | 0.00 | 0.00 | 44 | 1015.5 |
| 20260906192936 | 30 | 143 | 1.6 | 4.8 | 0.00 | 0.00 | 0.00 | 44 | 1015.7 |
| 20260906192437 | 31 | 336 | 1.6 | 4.8 | 0.00 | 0.00 | 0.00 | 43 | 1015.7 |
| 20260906192242 | 31 | 88 | 1.6 | 4.8 | 0.00 | 0.00 | 0.00 | 40 | 1015.8 |
| 20260906191436 | 30 | 98 | 1.6 | 4.8 | 0.00 | 0.00 | 0.00 | 48 | 1015.9 |
| 20260906190935 | 31 | 113 | 1.6 | 4.8 | 0.00 | 0.00 | 0.00 | 42 | 1016.0 |
| 20260906190435 | 30 | 124 | 1.6 | 8.0 | 0.00 | 0.00 | 0.00 | 43 | 1016.2 |
| 20260906185932 | 30 | 126 | 1.6 | 8.0 | 0.00 | 0.00 | 0.00 | 45 | 1016.3 |
| 20260906185433 | 30 | 107 | 1.6 | 3.2 | 0.00 | 0.00 | 0.00 | 47 | 1016.4 |
| 20260906184933 | 30 | 63 | 1.6 | 4.8 | 0.00 | 0.00 | 0.00 | 46 | 1016.5 |
| 20260906184432 | 30 | 190 | 3.2 | 8.0 | 0.00 | 0.00 | 0.00 | 46 | 1016.6 |
| 20260906183932 | 29 | 128 | 3.2 | 8.0 | 0.00 | 0.00 | 0.00 | 45 | 1016.7 |
| 20260906183738 | 30 | 107 | 1.6 | 8.0 | 0.00 | 0.00 | 0.00 | 44 | 1016.7 |
| 20260906182932 | 29 | 87 | 1.6 | 8.0 | 0.00 | 0.00 | 0.00 | 46 | 1016.8 |
| 20260906182433 | 29 | 326 | 1.6 | 8.0 | 0.00 | 0.00 | 0.00 | 46 | 1017.0 |
| 20260906182235 | 28 | 119 | 1.6 | 4.8 | 0.00 | 0.00 | 0.00 | 46 | 1017.1 |
| 20260906181431 | 28 | 90 | 1.6 | 8.0 | 0.00 | 0.00 | 0.00 | 46 | 1017.2 |
| 20260906181235 | 28 | 109 | 1.6 | 8.0 | 0.00 | 0.00 | 0.00 | 48 | 1017.3 |
| 20260906180736 | 28 | 317 | 0.0 | 3.2 | 0.00 | 0.00 | 0.00 | 50 | 1017.5 |
| 20260906175933 | 28 | 51 | 1.6 | 3.2 | 0.00 | 0.00 | 0.00 | 50 | 1017.5 |
| 20260906175432 | 28 | 57 | 0.0 | 3.2 | 0.00 | 0.00 | 0.00 | 49 | 1017.7 |
| 20260906174931 | 27 | 34 | 0.0 | 3.2 | 0.00 | 0.00 | 0.00 | 51 | 1017.7 |
| 20260906174431 | 27 | 180 | 0.0 | 3.2 | 0.00 | 0.00 | 0.00 | 53 | 1017.8 |
| 20260906173933 | 27 | 141 | 1.6 | 3.2 | 0.00 | 0.00 | 0.00 | 51 | 1017.9 |
| 20260906173432 | 27 | 53 | 0.0 | 3.2 | 0.00 | 0.00 | 0.00 | 49 | 1017.9 |
| 20260906172932 | 27 | 84 | 1.6 | 8.0 | 0.00 | 0.00 | 0.00 | 51 | 1018.0 |
| 20260906172432 | 27 | 117 | 1.6 | 8.0 | 0.00 | 0.00 | 0.00 | 51 | 1018.0 |
| 20260906171932 | 27 | 121 | 1.6 | 4.8 | 0.00 | 0.00 | 0.00 | 51 | 1018.1 |
| 20260906171432 | 26 | 111 | 1.6 | 6.4 | 0.00 | 0.00 | 0.00 | 54 | 1018.1 |
| 20260906170932 | 27 | 355 | 1.6 | 6.4 | 0.00 | 0.00 | 0.00 | 50 | 1018.2 |
| 20260906170433 | 27 | 96 | 1.6 | 4.8 | 0.00 | 0.00 | 0.00 | 52 | 1018.3 |
| 20260906170238 | 26 | 121 | 1.6 | 4.8 | 0.00 | 0.00 | 0.00 | 53 | 1018.3 |
| 20260906165434 | 26 | 119 | 1.6 | 6.4 | 0.00 | 0.00 | 0.00 | 52 | 1018.2 |
| 20260906164934 | 26 | 106 | 1.6 | 6.4 | 0.00 | 0.00 | 0.00 | 51 | 1018.3 |
| 20260906164734 | 27 | 194 | 1.6 | 3.2 | 0.00 | 0.00 | 0.00 | 52 | 1018.3 |
| 20260906163932 | 26 | 325 | 1.6 | 3.2 | 0.00 | 0.00 | 0.00 | 52 | 1018.3 |
| 20260906163431 | 27 | 307 | 0.0 | 4.8 | 0.00 | 0.00 | 0.00 | 55 | 1018.3 |
| 20260906162932 | 26 | 294 | 0.0 | 4.8 | 0.00 | 0.00 | 0.00 | 53 | 1018.3 |
| 20260906162516 | 26 | 288 | 0.0 | 3.2 | 0.00 | 0.00 | 0.00 | 53 | 1018.5 |
| 20260906161430 | 26 | 306 | 0.0 | 4.8 | 0.00 | 0.00 | 0.00 | 57 | 1018.5 |
| 20260906161231 | 26 | 96 | 1.6 | 4.8 | 0.00 | 0.00 | 0.00 | 57 | 1018.6 |
| 20260906160724 | 26 | 111 | 1.6 | 3.2 | 0.00 | 0.00 | 0.00 | 54 | 1018.6 |
| 20260906155925 | 26 | 99 | 1.6 | 4.8 | 0.00 | 0.00 | 0.00 | 60 | 1018.5 |
| 20260906155427 | 26 | 126 | 1.6 | 4.8 | 0.00 | 0.00 | 0.00 | 54 | 1018.5 |
| 20260906154926 | 25 | 67 | 1.6 | 4.8 | 0.00 | 0.00 | 0.00 | 60 | 1018.5 |
| 20260906154425 | 26 | 107 | 1.6 | 4.8 | 0.00 | 0.00 | 0.00 | 56 | 1018.5 |
| 20260906153924 | 26 | 150 | 1.6 | 3.2 | 0.00 | 0.00 | 0.00 | 56 | 1018.5 |
| 20260906153727 | 25 | 175 | 1.6 | 3.2 | 0.00 | 0.00 | 0.00 | 55 | 1018.5 |
| 20260906153225 | 25 | 279 | 1.6 | 4.8 | 0.00 | 0.00 | 0.00 | 58 | 1018.3 |
| 20260906152424 | 25 | 106 | 1.6 | 4.8 | 0.00 | 0.00 | 0.00 | 63 | 1018.5 |
| 20260906151922 | 25 | 120 | 1.6 | 3.2 | 0.00 | 0.00 | 0.00 | 58 | 1018.6 |
| 20260906151459 | 24 | 112 | 1.6 | 6.4 | 0.00 | 0.00 | 0.00 | 62 | 1018.5 |
| 20260906150413 | 24 | 119 | 1.6 | 4.8 | 0.00 | 0.00 | 0.00 | 60 | 1018.5 |
| 20260906145911 | 24 | 22 | 1.6 | 3.2 | 0.00 | 0.00 | 0.00 | 61 | 1018.5 |
| 20260906145411 | 23 | 138 | 0.0 | 3.2 | 0.00 | 0.00 | 0.00 | 61 | 1018.6 |
| 20260906144910 | 23 | 74 | 0.0 | 1.6 | 0.00 | 0.00 | 0.00 | 61 | 1018.6 |
| 20260906144411 | 24 | 0 | 0.0 | 3.2 | 0.00 | 0.00 | 0.00 | 59 | 1018.5 |
| 20260906143909 | 23 | 280 | 1.6 | 3.2 | 0.00 | 0.00 | 0.00 | 59 | 1018.5 |
| 20260906143405 | 24 | 253 | 0.0 | 3.2 | 0.00 | 0.00 | 0.00 | 58 | 1018.5 |
| 20260906142906 | 23 | 14 | 0.0 | 3.2 | 0.00 | 0.00 | 0.00 | 59 | 1018.5 |
| 20260906142405 | 23 | 122 | 1.6 | 3.2 | 0.00 | 0.00 | 0.00 | 62 | 1018.3 |
| 20260906141906 | 22 | 74 | 1.6 | 3.2 | 0.00 | 0.00 | 0.00 | 63 | 1018.3 |
| 20260906141405 | 22 | 9 | 1.6 | 3.2 | 0.00 | 0.00 | 0.00 | 63 | 1018.3 |
| 20260906140905 | 21 | 324 | 1.6 | 3.2 | 0.00 | 0.00 | 0.00 | 66 | 1018.3 |
| 20260906140404 | 20 | 294 | 1.6 | 4.8 | 0.00 | 0.00 | 0.00 | 69 | 1018.3 |
| 20260906135904 | 20 | 337 | 1.6 | 4.8 | 0.00 | 0.00 | 0.00 | 69 | 1018.3 |
| 20260906135403 | 19 | 344 | 1.6 | 3.2 | 0.00 | 0.00 | 0.00 | 71 | 1018.3 |
| 20260906134903 | 18 | 248 | 1.6 | 3.2 | 0.00 | 0.00 | 0.00 | 72 | 1018.1 |
| 20260906134452 | 18 | 11 | 0.0 | 3.2 | 0.00 | 0.00 | 0.00 | 74 | 1018.1 |
| 20260906133359 | 17 | 325 | 0.0 | 1.6 | 0.00 | 0.00 | 0.00 | 76 | 1018.1 |
| 20260906132847 | 17 | 325 | 0.0 | 1.6 | 0.00 | 0.00 | 0.00 | 76 | 1018.1 |
| 20260906132348 | 17 | 334 | 1.6 | 3.2 | 0.00 | 0.00 | 0.00 | 77 | 1018.0 |
| 20260906132144 | 17 | 336 | 1.6 | 4.8 | 0.00 | 0.00 | 0.00 | 77 | 1018.0 |
| 20260906131647 | 17 | 342 | 1.6 | 4.8 | 0.00 | 0.00 | 0.00 | 77 | 1017.9 |
| 20260906130841 | 17 | 320 | 1.6 | 3.2 | 0.00 | 0.00 | 0.00 | 77 | 1017.7 |
| 20260906130343 | 17 | 325 | 1.6 | 3.2 | 0.00 | 0.00 | 0.00 | 77 | 1017.7 |
| 20260906125842 | 17 | 327 | 1.6 | 3.2 | 0.00 | 0.00 | 0.00 | 77 | 1017.5 |
| 20260906125341 | 17 | 327 | 1.6 | 3.2 | 0.00 | 0.00 | 0.00 | 76 | 1017.4 |
| 20260906125138 | 17 | 327 | 1.6 | 3.2 | 0.00 | 0.00 | 0.00 | 77 | 1017.4 |
| 20260906124335 | 17 | 342 | 1.6 | 3.2 | 0.00 | 0.00 | 0.00 | 76 | 1017.4 |
| 20260906124133 | 17 | 342 | 0.0 | 3.2 | 0.00 | 0.00 | 0.00 | 76 | 1017.4 |
| 20260906123336 | 17 | 324 | 0.0 | 1.6 | 0.00 | 0.00 | 0.00 | 76 | 1017.3 |
| 20260906123130 | 17 | 324 | 1.6 | 3.2 | 0.00 | 0.00 | 0.00 | 75 | 1017.2 |
| 20260906122334 | 17 | 318 | 1.6 | 3.2 | 0.00 | 0.00 | 0.00 | 75 | 1017.1 |
| 20260906122139 | 17 | 342 | 1.6 | 3.2 | 0.00 | 0.00 | 0.00 | 74 | 1017.0 |
| 20260906121334 | 17 | 25 | 1.6 | 3.2 | 0.00 | 0.00 | 0.00 | 74 | 1016.8 |
| 20260906120833 | 18 | 346 | 1.6 | 3.2 | 0.00 | 0.00 | 0.00 | 73 | 1017.0 |
| 20260906120332 | 18 | 49 | 1.6 | 3.2 | 0.00 | 0.00 | 0.00 | 74 | 1017.0 |
| 20260906115833 | 18 | 325 | 1.6 | 3.2 | 0.00 | 0.00 | 0.00 | 73 | 1016.8 |
| 20260906115334 | 18 | 317 | 1.6 | 3.2 | 0.00 | 0.00 | 0.00 | 73 | 1016.8 |
| 20260906114835 | 18 | 333 | 1.6 | 3.2 | 0.00 | 0.00 | 0.00 | 73 | 1016.7 |
| 20260906114333 | 18 | 307 | 0.0 | 3.2 | 0.00 | 0.00 | 0.00 | 73 | 1016.7 |
| 20260906113832 | 18 | 333 | 1.6 | 3.2 | 0.00 | 0.00 | 0.00 | 73 | 1016.8 |
| 20260906113333 | 18 | 330 | 1.6 | 3.2 | 0.00 | 0.00 | 0.00 | 72 | 1016.8 |
| 20260906112832 | 18 | 316 | 0.0 | 3.2 | 0.00 | 0.00 | 0.00 | 73 | 1016.8 |
| 20260906112332 | 18 | 331 | 0.0 | 3.2 | 0.00 | 0.00 | 0.00 | 73 | 1016.7 |
| 20260906111832 | 18 | 331 | 1.6 | 3.2 | 0.00 | 0.00 | 0.00 | 70 | 1016.7 |
| 20260906111631 | 18 | 344 | 1.6 | 3.2 | 0.00 | 0.00 | 0.00 | 70 | 1016.7 |
| 20260906110831 | 19 | 337 | 1.6 | 4.8 | 0.00 | 0.00 | 0.00 | 70 | 1016.7 |
| 20260906110631 | 19 | 346 | 1.6 | 4.8 | 0.00 | 0.00 | 0.00 | 70 | 1016.6 |
| 20260906105832 | 19 | 333 | 1.6 | 4.8 | 0.00 | 0.00 | 0.00 | 69 | 1016.6 |
| 20260906105331 | 19 | 319 | 1.6 | 3.2 | 0.00 | 0.00 | 0.00 | 70 | 1016.7 |
| 20260906104831 | 19 | 355 | 1.6 | 6.4 | 0.00 | 0.00 | 0.00 | 70 | 1016.6 |
| 20260906104331 | 18 | 321 | 1.6 | 6.4 | 0.00 | 0.00 | 0.00 | 70 | 1016.6 |
| 20260906103832 | 18 | 325 | 1.6 | 4.8 | 0.00 | 0.00 | 0.00 | 70 | 1016.6 |
| 20260906103637 | 18 | 346 | 1.6 | 3.2 | 0.00 | 0.00 | 0.00 | 71 | 1016.7 |
| 20260906103134 | 18 | 312 | 1.6 | 3.2 | 0.00 | 0.00 | 0.00 | 71 | 1016.7 |
| 20260906102333 | 18 | 342 | 1.6 | 4.8 | 0.00 | 0.00 | 0.00 | 71 | 1016.8 |
| 20260906102130 | 18 | 319 | 1.6 | 4.8 | 0.00 | 0.00 | 0.00 | 70 | 1016.8 |
| 20260906101325 | 18 | 333 | 1.6 | 4.8 | 0.00 | 0.00 | 0.00 | 70 | 1016.8 |
| 20260906100817 | 18 | 338 | 1.6 | 6.4 | 0.00 | 0.00 | 0.00 | 69 | 1016.6 |
| 20260906100311 | 19 | 322 | 1.6 | 6.4 | 0.00 | 0.00 | 0.00 | 69 | 1016.7 |
| 20260906095811 | 19 | 28 | 3.2 | 6.4 | 0.00 | 0.00 | 0.00 | 69 | 1016.6 |
| 20260906095311 | 19 | 319 | 1.6 | 4.8 | 0.00 | 0.00 | 0.00 | 69 | 1016.5 |
| 20260906094811 | 19 | 340 | 1.6 | 4.8 | 0.00 | 0.00 | 0.00 | 68 | 1016.5 |
| 20260906094309 | 19 | 327 | 1.6 | 4.8 | 0.00 | 0.00 | 0.00 | 68 | 1016.5 |
| 20260906093811 | 19 | 342 | 1.6 | 3.2 | 0.00 | 0.00 | 0.00 | 68 | 1016.5 |
| 20260906093307 | 19 | 333 | 1.6 | 4.8 | 0.00 | 0.00 | 0.00 | 68 | 1016.5 |
| 20260906092808 | 19 | 292 | 1.6 | 4.8 | 0.00 | 0.00 | 0.00 | 67 | 1016.4 |
| 20260906092309 | 19 | 319 | 1.6 | 4.8 | 0.00 | 0.00 | 0.00 | 67 | 1016.4 |
| 20260906091805 | 19 | 323 | 1.6 | 6.4 | 0.00 | 0.00 | 0.00 | 67 | 1016.5 |
| 20260906091307 | 20 | 340 | 3.2 | 6.4 | 0.00 | 0.00 | 0.00 | 67 | 1016.5 |
| 20260906091116 | 20 | 322 | 1.6 | 6.4 | 0.00 | 0.00 | 0.00 | 66 | 1016.5 |
| 20260906090306 | 20 | 334 | 1.6 | 4.8 | 0.00 | 0.00 | 0.00 | 65 | 1016.5 |
| 20260906085807 | 20 | 295 | 1.6 | 4.8 | 0.00 | 0.00 | 0.00 | 64 | 1016.4 |
| 20260906085307 | 20 | 317 | 1.6 | 4.8 | 0.00 | 0.00 | 0.00 | 65 | 1016.4 |
| 20260906085110 | 20 | 279 | 1.6 | 3.2 | 0.00 | 0.00 | 0.00 | 65 | 1016.4 |
| 20260906084616 | 20 | 201 | 1.6 | 3.2 | 0.00 | 0.00 | 0.00 | 65 | 1016.4 |
| 20260906083809 | 20 | 305 | 1.6 | 3.2 | 0.00 | 0.00 | 0.00 | 64 | 1016.5 |
| 20260906083306 | 20 | 316 | 0.0 | 4.8 | 0.00 | 0.00 | 0.00 | 64 | 1016.5 |
| 20260906082807 | 20 | 296 | 0.0 | 4.8 | 0.00 | 0.00 | 0.00 | 64 | 1016.5 |
| 20260906082610 | 20 | 64 | 1.6 | 3.2 | 0.00 | 0.00 | 0.00 | 65 | 1016.6 |
| 20260906082108 | 20 | 200 | 1.6 | 4.8 | 0.00 | 0.00 | 0.00 | 64 | 1016.6 |
| 20260906081304 | 20 | 23 | 1.6 | 4.8 | 0.00 | 0.00 | 0.00 | 63 | 1016.6 |
| 20260906081107 | 20 | 336 | 1.6 | 4.8 | 0.00 | 0.00 | 0.00 | 63 | 1016.6 |
| 20260906080303 | 20 | 222 | 1.6 | 4.8 | 0.00 | 0.00 | 0.00 | 63 | 1016.5 |
| 20260906075805 | 20 | 342 | 1.6 | 3.2 | 0.00 | 0.00 | 0.00 | 62 | 1016.4 |
| 20260906075306 | 20 | 347 | 1.6 | 4.8 | 0.00 | 0.00 | 0.00 | 62 | 1016.4 |
| 20260906075108 | 20 | 280 | 1.6 | 4.8 | 0.00 | 0.00 | 0.00 | 62 | 1016.3 |
| 20260906074302 | 20 | 234 | 1.6 | 4.8 | 0.00 | 0.00 | 0.00 | 61 | 1016.0 |
| 20260906074110 | 20 | 294 | 1.6 | 4.8 | 0.00 | 0.00 | 0.00 | 61 | 1016.0 |
| 20260906073305 | 20 | 331 | 1.6 | 4.8 | 0.00 | 0.00 | 0.00 | 61 | 1015.9 |
| 20260906072805 | 20 | 290 | 1.6 | 4.8 | 0.00 | 0.00 | 0.00 | 61 | 1015.9 |
| 20260906072306 | 20 | 268 | 1.6 | 4.8 | 0.00 | 0.00 | 0.00 | 60 | 1015.9 |
| 20260906072110 | 21 | 331 | 1.6 | 4.8 | 0.00 | 0.00 | 0.00 | 60 | 1015.9 |
| 20260906071306 | 21 | 286 | 1.6 | 4.8 | 0.00 | 0.00 | 0.00 | 59 | 1015.8 |
| 20260906070804 | 21 | 319 | 1.6 | 4.8 | 0.00 | 0.00 | 0.00 | 58 | 1015.9 |
| 20260906070305 | 21 | 315 | 1.6 | 3.2 | 0.00 | 0.00 | 0.00 | 57 | 1015.9 |
| 20260906065804 | 21 | 327 | 1.6 | 4.8 | 0.00 | 0.00 | 0.00 | 56 | 1015.9 |
| 20260906065306 | 21 | 325 | 1.6 | 4.8 | 0.00 | 0.00 | 0.00 | 56 | 1016.0 |
| 20260906064804 | 21 | 218 | 1.6 | 4.8 | 0.00 | 0.00 | 0.00 | 55 | 1016.0 |
| 20260906064304 | 22 | 232 | 1.6 | 4.8 | 0.00 | 0.00 | 0.00 | 54 | 1016.0 |
| 20260906064110 | 21 | 284 | 0.0 | 3.2 | 0.00 | 0.00 | 0.00 | 54 | 1016.0 |
| 20260906063347 | 21 | 312 | 0.0 | 3.2 | 0.00 | 0.00 | 0.00 | 53 | 1016.0 |
| 20260906062306 | 22 | 336 | 1.6 | 4.8 | 0.00 | 0.00 | 0.00 | 53 | 1016.0 |
| 20260906061805 | 22 | 323 | 1.6 | 3.2 | 0.00 | 0.00 | 0.00 | 53 | 1016.0 |
| 20260906061306 | 22 | 313 | 1.6 | 1.6 | 0.00 | 0.00 | 0.00 | 52 | 1016.2 |
| 20260906061108 | 22 | 313 | 1.6 | 3.2 | 0.00 | 0.00 | 0.00 | 52 | 1016.0 |
| 20260906060306 | 22 | 334 | 0.0 | 3.2 | 0.00 | 0.00 | 0.00 | 52 | 1015.9 |
| 20260906055806 | 22 | 51 | 0.0 | 1.6 | 0.00 | 0.00 | 0.00 | 51 | 1016.0 |
| 20260906055307 | 22 | 106 | 0.0 | 1.6 | 0.00 | 0.00 | 0.00 | 49 | 1016.0 |
| 20260906055111 | 22 | 107 | 0.0 | 1.6 | 0.00 | 0.00 | 0.00 | 49 | 1015.9 |
| 20260906054308 | 23 | 107 | 0.0 | 1.6 | 0.00 | 0.00 | 0.00 | 49 | 1015.9 |
| 20260906053805 | 22 | 107 | 0.0 | 0.0 | 0.00 | 0.00 | 0.00 | 49 | 1015.9 |
| 20260906053306 | 23 | 107 | 0.0 | 0.0 | 0.00 | 0.00 | 0.00 | 48 | 1016.0 |
| 20260906052805 | 23 | 107 | 0.0 | 0.0 | 0.00 | 0.00 | 0.00 | 48 | 1016.3 |
| 20260906052306 | 23 | 107 | 0.0 | 0.0 | 0.00 | 0.00 | 0.00 | 48 | 1016.3 |
| 20260906051807 | 23 | 107 | 0.0 | 1.6 | 0.00 | 0.00 | 0.00 | 48 | 1016.2 |
| 20260906051305 | 23 | 107 | 0.0 | 1.6 | 0.00 | 0.00 | 0.00 | 47 | 1016.3 |
| 20260906050804 | 23 | 107 | 0.0 | 3.2 | 0.00 | 0.00 | 0.00 | 47 | 1016.3 |
| 20260906050307 | 23 | 107 | 0.0 | 3.2 | 0.00 | 0.00 | 0.00 | 46 | 1016.3 |
| 20260906045805 | 24 | 146 | 1.6 | 4.8 | 0.00 | 0.00 | 0.00 | 46 | 1016.2 |
| 20260906045605 | 24 | 120 | 3.2 | 8.0 | 0.00 | 0.00 | 0.00 | 45 | 1016.2 |
| 20260906044806 | 25 | 115 | 3.2 | 8.0 | 0.00 | 0.00 | 0.00 | 43 | 1016.2 |
| 20260906044611 | 25 | 110 | 1.6 | 4.8 | 0.00 | 0.00 | 0.00 | 43 | 1016.0 |
| 20260906043803 | 24 | 113 | 1.6 | 4.8 | 0.00 | 0.00 | 0.00 | 43 | 1016.0 |
| 20260906043304 | 24 | 113 | 1.6 | 4.8 | 0.00 | 0.00 | 0.00 | 44 | 1016.0 |
| 20260906042806 | 24 | 113 | 0.0 | 3.2 | 0.00 | 0.00 | 0.00 | 45 | 1015.8 |
| 20260906042306 | 25 | 117 | 1.6 | 4.8 | 0.00 | 0.00 | 0.00 | 43 | 1015.9 |
| 20260906041805 | 25 | 142 | 1.6 | 4.8 | 0.00 | 0.00 | 0.00 | 44 | 1016.0 |
| 20260906041306 | 24 | 95 | 0.0 | 3.2 | 0.00 | 0.00 | 0.00 | 45 | 1015.9 |
| 20260906040806 | 25 | 121 | 0.0 | 0.0 | 0.00 | 0.00 | 0.00 | 43 | 1015.8 |
| 20260906040606 | 25 | 121 | 0.0 | 0.0 | 0.00 | 0.00 | 0.00 | 43 | 1015.7 |
| 20260906035805 | 25 | 121 | 0.0 | 0.0 | 0.00 | 0.00 | 0.00 | 43 | 1015.7 |
| 20260906035608 | 25 | 121 | 0.0 | 0.0 | 0.00 | 0.00 | 0.00 | 44 | 1015.8 |
| 20260906034804 | 25 | 121 | 0.0 | 0.0 | 0.00 | 0.00 | 0.00 | 43 | 1015.7 |
| 20260906034304 | 25 | 121 | 0.0 | 1.6 | 0.00 | 0.00 | 0.00 | 43 | 1015.7 |
| 20260906033808 | 26 | 121 | 0.0 | 1.6 | 0.00 | 0.00 | 0.00 | 42 | 1015.8 |
| 20260906033306 | 26 | 121 | 0.0 | 1.6 | 0.00 | 0.00 | 0.00 | 41 | 1015.8 |
| 20260906032808 | 26 | 121 | 0.0 | 1.6 | 0.00 | 0.00 | 0.00 | 40 | 1015.7 |
| 20260906032305 | 26 | 121 | 0.0 | 3.2 | 0.00 | 0.00 | 0.00 | 40 | 1015.7 |
| 20260906031801 | 26 | 121 | 1.6 | 4.8 | 0.00 | 0.00 | 0.00 | 40 | 1015.6 |
| 20260906031304 | 26 | 101 | 1.6 | 4.8 | 0.00 | 0.00 | 0.00 | 42 | 1015.7 |
| 20260906030804 | 26 | 94 | 3.2 | 4.8 | 0.00 | 0.00 | 0.00 | 43 | 1015.5 |
| 20260906030303 | 26 | 123 | 3.2 | 8.0 | 0.00 | 0.00 | 0.00 | 44 | 1015.3 |
| 20260906025802 | 26 | 119 | 1.6 | 8.0 | 0.00 | 0.00 | 0.00 | 46 | 1015.3 |
| 20260906025306 | 26 | 123 | 1.6 | 4.8 | 0.00 | 0.00 | 0.00 | 46 | 1015.1 |
| 20260906024801 | 26 | 130 | 1.6 | 3.2 | 0.00 | 0.00 | 0.00 | 44 | 1015.1 |
| 20260906024603 | 27 | 149 | 1.6 | 3.2 | 0.00 | 0.00 | 0.00 | 40 | 1015.0 |
| 20260906023802 | 27 | 150 | 1.6 | 3.2 | 0.00 | 0.00 | 0.00 | 38 | 1014.8 |
| 20260906023604 | 27 | 150 | 1.6 | 3.2 | 0.00 | 0.00 | 0.00 | 38 | 1014.8 |
| 20260906022805 | 27 | 99 | 0.0 | 3.2 | 0.00 | 0.00 | 0.00 | 36 | 1014.7 |
| 20260906022307 | 28 | 55 | 0.0 | 1.6 | 0.00 | 0.00 | 0.00 | 35 | 1014.7 |
| 20260906021805 | 28 | 26 | 0.0 | 0.0 | 0.00 | 0.00 | 0.00 | 34 | 1014.5 |
| 20260906021305 | 28 | 26 | 0.0 | 0.0 | 0.00 | 0.00 | 0.00 | 35 | 1014.4 |
| 20260906020805 | 28 | 26 | 0.0 | 0.0 | 0.00 | 0.00 | 0.00 | 36 | 1014.2 |
| 20260906020305 | 27 | 26 | 0.0 | 0.0 | 0.00 | 0.00 | 0.00 | 38 | 1014.2 |
| 20260906015805 | 28 | 26 | 0.0 | 0.0 | 0.00 | 0.00 | 0.00 | 36 | 1014.2 |
| 20260906015307 | 28 | 26 | 0.0 | 1.6 | 0.00 | 0.00 | 0.00 | 35 | 1014.1 |
| 20260906014806 | 30 | 26 | 0.0 | 1.6 | 0.00 | 0.00 | 0.00 | 31 | 1014.1 |
| 20260906014308 | 30 | 26 | 0.0 | 1.6 | 0.00 | 0.00 | 0.00 | 31 | 1014.0 |
| 20260906013805 | 30 | 26 | 0.0 | 1.6 | 0.00 | 0.00 | 0.00 | 31 | 1014.0 |
| 20260906013307 | 30 | 26 | 0.0 | 1.6 | 0.00 | 0.00 | 0.00 | 30 | 1013.8 |
| 20260906012805 | 30 | 26 | 0.0 | 0.0 | 0.00 | 0.00 | 0.00 | 31 | 1013.8 |
| 20260906012306 | 30 | 26 | 0.0 | 0.0 | 0.00 | 0.00 | 0.00 | 31 | 1013.7 |
| 20260906011806 | 30 | 26 | 0.0 | 1.6 | 0.00 | 0.00 | 0.00 | 31 | 1013.8 |
| 20260906011600 | 30 | 26 | 0.0 | 1.6 | 0.00 | 0.00 | 0.00 | 31 | 1013.7 |
| 20260906010806 | 30 | 26 | 0.0 | 1.6 | 0.00 | 0.00 | 0.00 | 31 | 1013.7 |
| 20260906010306 | 31 | 26 | 0.0 | 1.6 | 0.00 | 0.00 | 0.00 | 29 | 1013.8 |
| 20260906010207 | 31 | 26 | 0.0 | 1.6 | 0.00 | 0.00 | 0.00 | 29 | 1013.8 |
| 20260906004805 | 31 | 26 | 0.0 | 1.6 | 0.00 | 0.00 | 0.00 | 30 | 1013.7 |
| 20260906004304 | 31 | 26 | 0.0 | 1.6 | 0.00 | 0.00 | 0.00 | 30 | 1013.7 |
| 20260906003806 | 31 | 26 | 0.0 | 1.6 | 0.00 | 0.00 | 0.00 | 28 | 1013.7 |
| 20260906003307 | 32 | 26 | 0.0 | 1.6 | 0.00 | 0.00 | 0.00 | 28 | 1013.7 |
| 20260906002804 | 32 | 24 | 0.0 | 1.6 | 0.00 | 0.00 | 0.00 | 27 | 1013.7 |
| 20260906002306 | 32 | 5 | 0.0 | 1.6 | 0.00 | 0.00 | 0.00 | 29 | 1013.7 |
| 20260906002105 | 32 | 32 | 0.0 | 3.2 | 0.00 | 0.00 | 0.00 | 28 | 1013.7 |
| 20260906001258 | 32 | 244 | 1.6 | 3.2 | 0.00 | 0.00 | 0.00 | 26 | 1013.7 |
| 20260906000747 | 32 | 264 | 1.6 | 4.8 | 0.00 | 0.00 | 0.00 | 27 | 1013.8 |
| 20260906000234 | 32 | 15 | 1.6 | 4.8 | 0.00 | 0.00 | 0.00 | 27 | 1013.8 |
| 20260905235732 | 31 | 57 | 1.6 | 3.2 | 0.00 | 0.00 | 0.00 | 29 | 1013.8 |
| 20260905235235 | 31 | 299 | 1.6 | 3.2 | 0.00 | 0.00 | 0.00 | 28 | 1013.8 |
| 20260905234733 | 31 | 347 | 0.0 | 3.2 | 0.00 | 0.00 | 0.00 | 29 | 1013.8 |
| 20260905234532 | 31 | 304 | 1.6 | 3.2 | 0.00 | 0.00 | 0.00 | 29 | 1013.7 |
| 20260905233733 | 32 | 84 | 1.6 | 4.8 | 0.00 | 0.00 | 0.00 | 27 | 1013.8 |
| 20260905233232 | 32 | 151 | 1.6 | 4.8 | 0.00 | 0.00 | 0.00 | 28 | 1013.7 |
| 20260905232732 | 32 | 122 | 1.6 | 3.2 | 0.00 | 0.00 | 0.00 | 26 | 1013.7 |
| 20260905232235 | 32 | 124 | 1.6 | 4.8 | 0.00 | 0.00 | 0.00 | 26 | 1013.5 |
| 20260905231729 | 32 | 124 | 1.6 | 4.8 | 0.00 | 0.00 | 0.00 | 25 | 1013.5 |
| 20260905231218 | 32 | 112 | 1.6 | 4.8 | 0.00 | 0.00 | 0.00 | 25 | 1013.6 |
| 20260905230708 | 32 | 98 | 1.6 | 4.8 | 0.00 | 0.00 | 0.00 | 26 | 1013.6 |
| 20260905230212 | 32 | 98 | 1.6 | 4.8 | 0.00 | 0.00 | 0.00 | 25 | 1013.6 |
| 20260905225705 | 32 | 103 | 1.6 | 4.8 | 0.00 | 0.00 | 0.00 | 25 | 1013.6 |
| 20260905225205 | 32 | 107 | 1.6 | 3.2 | 0.00 | 0.00 | 0.00 | 26 | 1013.7 |
| 20260905225004 | 32 | 107 | 1.6 | 4.8 | 0.00 | 0.00 | 0.00 | 24 | 1013.7 |
| 20260905224208 | 33 | 112 | 3.2 | 6.4 | 0.00 | 0.00 | 0.00 | 23 | 1013.6 |
| 20260905223707 | 33 | 96 | 3.2 | 8.0 | 0.00 | 0.00 | 0.00 | 23 | 1013.6 |
| 20260905223204 | 33 | 105 | 3.2 | 8.0 | 0.00 | 0.00 | 0.00 | 24 | 1013.6 |
| 20260905222707 | 33 | 109 | 3.2 | 8.0 | 0.00 | 0.00 | 0.00 | 23 | 1013.6 |
| 20260905222204 | 33 | 110 | 1.6 | 8.0 | 0.00 | 0.00 | 0.00 | 21 | 1013.6 |
| 20260905221707 | 33 | 98 | 1.6 | 4.8 | 0.00 | 0.00 | 0.00 | 24 | 1013.6 |
| 20260905221202 | 33 | 101 | 1.6 | 3.2 | 0.00 | 0.00 | 0.00 | 24 | 1013.6 |
| 20260905220703 | 33 | 102 | 1.6 | 6.4 | 0.00 | 0.00 | 0.00 | 23 | 1013.6 |
| 20260905220505 | 34 | 133 | 3.2 | 8.0 | 0.00 | 0.00 | 0.00 | 23 | 1013.6 |
| 20260905215704 | 34 | 99 | 1.6 | 8.0 | 0.00 | 0.00 | 0.00 | 24 | 1013.7 |
| 20260905215201 | 34 | 166 | 1.6 | 4.8 | 0.00 | 0.00 | 0.00 | 23 | 1013.7 |
| 20260905214704 | 34 | 156 | 3.2 | 8.0 | 0.00 | 0.00 | 0.00 | 22 | 1013.7 |
| 20260905214201 | 34 | 117 | 4.8 | 12.9 | 0.00 | 0.00 | 0.00 | 21 | 1013.8 |
| 20260905213704 | 35 | 118 | 4.8 | 12.9 | 0.00 | 0.00 | 0.00 | 21 | 1013.8 |
| 20260905213510 | 34 | 128 | 3.2 | 9.7 | 0.00 | 0.00 | 0.00 | 23 | 1013.8 |
| 20260905212705 | 34 | 87 | 1.6 | 8.0 | 0.00 | 0.00 | 0.00 | 27 | 1013.8 |